West Davis - northern half: Past 24 Hour Conditions

 

Baker Lake Airport

03:00 AM CDT 24 October 2014
This table is a summary of hourly weather conditions for the past 24 hours.
Date / Time
(CDT)
Wind(knots) Conditions Visibility(km) Pressure(kPa) Air tempC) Relative humidity(%) Dew pointC) Wind Chill
24 October 2014
3:00 ESE 23 gust 28 Drifting Snow 24 102.0 -4 86 -6 -13
2:00 ESE 21 gust 29 Drifting Snow 24 102.0 -4 88 -6 -13
1:00 ESE 25 Drifting Snow 24 102.1 -4 86 -6 -14
0:00 ESE 23 Drifting Snow 24 102.1 -5 86 -7 -14
23 October 2014
23:00 ESE 21 gust 28 Drifting Snow 24 102.2 -5 86 -7 -13
22:00 ESE 23 gust 29 Drifting Snow 24 102.2 -4 86 -6 -13
21:00 ESE 23 Light Snow 16 102.2 -5 88 -6 -14
20:00 E 19 Light Snow 16 102.2 -6 93 -7 -15
19:00 E 20 Light Snow 16 102.3 -6 92 -7 -15
18:00 E 20 Light Snow 6 102.3 -6 92 -7 -15
17:00 ENE 17 gust 22 Light Snow 5 102.4 -7 91 -8 -16
16:00 E 16 Light Snow 5 102.4 -8 89 -9 -17
15:00 ENE 16 Light Snow 16 102.5 -9 86 -11 -18
14:00 ENE 16 Drifting Snow 24 102.5 -9 87 -11 -18
13:00 ENE 16 Light Snow 6 102.5 -9 87 -11 -18
12:00 ENE 13 Light Snow 3 102.5 -10 87 -11 -18
11:00 ENE 11 gust 17 Cloudy 32 102.5 -10 83 -13 -18
10:00 ENE 14 Cloudy 32 102.5 -11 82 -13 -20
9:00 ENE 13 Mostly Cloudy 32 102.5 -11 80 -14 -20
8:00 ENE 14 Cloudy 24 102.4 -12 79 -15 -21
7:00 ENE 13 Cloudy 24 102.4 -11 80 -14 -20
6:00 ENE 12 gust 17 Cloudy 24 102.4 -11 80 -14 -19
5:00 NE 14 Cloudy 24 102.3 -11 77 -14 -20
4:00 NE 13 Cloudy 24 102.3 -9 76 -13 -18
3:00 NE 14 Cloudy 24 102.3 -8 75 -12 -17
 
Map of Arctic - Eastern Arctic marine weather areas Baker Lake Airport Chesterfield Inlet Airport Coral Harbour Airport Gjoa Haven Airport Kugaaruk Airport Rankin Inlet Airport Shepherd Bay Airport Whale Cove Airport Arctic Bay Brevoort Island Qikiqtarjuaq Airport Cape Dorset Airport Cape Dyer Cape Hooper Clyde Airport Grise Fiord Airport Hall Beach Airport Igloolik Airport Iqaluit Airport Longstaff Bluff Pangnirtung Airport Pond Inlet Airport Repulse Bay Airport Resolute Airport Resolution Island Rowley Island Airport Taloyoak Airport Wager Bay Akulivik Airport Ivujivik Airport Puvirnituq Airport Kangiqsujuaq Airport Kangirsuk Airport Quaqtaq Airport Tasiujaq Airport Cape Kakkiviak Cape Kiglapait Nain Airport Saglek Cape Mercy Kimmirut Airport Aupaluk Airport Salluit Airport Kangiqsualujjuaq Airport Fort Ross
Legend: buoyBuoy land stationLand Station